[[{"header":{"parameterUnit":"m.s-1","parameterCategory":1,"la1":30.2991,"la2":30.254,"lo1":-89.0895,"lo2":-89.0444,"dy":0.0017,"dx":0.0017,"nx":28,"ny":28,"refTime":"2023-08-25T03:00:00:Z","depth":0,"parameterNumber":2,"parameterNumberName":"U-component_of_WINDS"},"data":[0,0,0,0,0,0,0,0,0,0,0,0,0,0,0,0,0,0,0,0,0,0,0,0,0,0,0,0,0,0,0,0,0,0,0,0,0,0,0,0,0,0,0,0,0,0,0,0,0,0,0,0,0,0,0,0,0,0,-1.407,-1.407,0,-1.4005,-1.4004,-1.4003,-1.3922,-1.3921,-1.392,-1.3919,-1.3852,-1.3851,-1.3851,0,0,0,0,0,0,0,0,0,0,0,0,0,-1.4126,-1.4126,-1.4071,-1.407,-1.4069,-1.4005,-1.4004,-1.4003,-1.3923,-1.3921,-1.3919,-1.3918,-1.3852,-1.3851,-1.385,0,0,0,0,0,0,0,0,0,0,0,0,0,-1.4086,-1.4126,-1.4071,-1.4021,-1.4016,-1.4005,-1.4004,-1.4003,-1.3923,-1.3921,-1.3919,-1.3917,-1.3852,-1.3851,-1.385,-1.3883,0,0,-1.3848,-1.3847,0,0,0,0,0,0,0,0,-1.4088,-1.4084,-1.4029,-1.4024,-1.4019,-1.397,-1.3999,-1.3963,-1.3923,-1.3958,-1.3918,-1.3916,-1.3893,-1.3888,-1.388,-1.388,-1.3877,-1.3848,-1.3847,-1.3847,-1.3846,0,0,0,0,0,0,0,-1.4091,-1.4086,-1.4044,-1.4028,-1.4022,-1.4002,-1.3994,-1.3992,-1.3937,-1.3955,-1.3949,-1.3942,-1.3889,-1.3881,-1.3878,-1.3876,-1.3848,-1.3847,-1.3846,-1.3846,-1.3901,-1.3903,0,0,0,0,0,0,-1.4101,-1.4089,-1.4047,-1.4043,-1.4049,-1.4003,-1.3994,-1.3987,-1.3937,-1.3927,-1.3944,-1.3939,-1.3884,-1.3879,-1.3875,-1.3911,-1.3847,-1.3846,-1.3845,-1.3899,-1.3901,-1.3903,0,0,0,0,0,0,-1.4103,-1.4098,-1.4049,-1.4064,-1.4056,-1.4004,-1.3997,-1.3987,-1.3979,-1.3928,-1.3918,-1.3946,-1.3882,-1.3877,-1.3882,-1.3908,-1.3845,-1.3845,-1.3896,-1.39,-1.3902,-1.3983,0,0,0,0,0,0,-1.4105,-1.4099,-1.4111,-1.4065,-1.4056,-1.4057,-1.3999,-1.3987,-1.3978,-1.397,-1.3927,-1.3918,-1.388,-1.3884,-1.3881,-1.3905,-1.3844,-1.3894,-1.3898,-1.3901,-1.3978,-1.3988,-1.3997,0,0,0,0,0,-1.4107,-1.4136,-1.4112,-1.4108,-1.407,-1.4059,-1.4054,-1.4009,-1.398,-1.3992,-1.3959,-1.392,-1.3905,-1.3885,-1.3881,-1.3906,-1.3892,-1.3897,-1.3901,-1.3973,-1.3986,-1.3997,0,0,0,0,0,0,-1.4187,-1.4129,-1.4102,-1.4117,-1.4094,-1.4045,-1.4058,-1.4024,-1.4008,-1.4001,-1.3946,-1.3937,-1.395,-1.3928,-1.3907,-1.3935,-1.3893,-1.3897,-1.3949,-1.3961,-1.397,-1.3976,-1.3843,0,0,0,0,0,-1.4206,-1.4202,-1.4152,-1.4171,-1.416,-1.4112,-1.4105,-1.4073,-1.4046,-1.4036,-1.4003,-1.3979,-1.3969,-1.3964,-1.3951,-1.3974,-1.3964,-1.3989,-1.3999,-1.4007,-1.4011,-1.4022,-1.4033,-1.3918,-1.3918,-1.3918,0,0,-1.4246,-1.4214,-1.4215,-1.4186,-1.4164,-1.4161,-1.4104,-1.4103,-1.4101,-1.4035,-1.4039,-1.4015,-1.3984,-1.3998,-1.4003,-1.3981,-1.4041,-1.4013,-1.402,-1.4019,-1.4028,-1.4039,-1.4049,-1.3921,-1.392,-1.392,0,0,-1.4318,-1.4293,-1.4306,-1.4285,-1.4252,-1.422,-1.4223,-1.418,-1.4162,-1.4164,-1.4115,-1.4112,-1.4095,-1.4076,-1.4064,-1.4129,-1.4092,-1.4126,-1.4177,-1.4189,-1.4198,-1.4206,-1.4229,-1.4239,-1.413,-1.4131,-1.4131,0,-1.4372,-1.4366,-1.4317,-1.432,-1.4309,-1.4249,-1.4262,-1.4244,-1.421,-1.4203,-1.4178,-1.4157,-1.4132,-1.4141,-1.4157,-1.4149,-1.4152,-1.4131,-1.42,-1.4208,-1.4214,-1.4236,-1.4246,-1.4135,-1.4134,-1.4134,-1.4134,0,-1.4434,-1.4431,-1.4445,-1.4413,-1.4404,-1.4412,-1.4364,-1.436,-1.4329,-1.4299,-1.4303,-1.4271,-1.4251,-1.4251,-1.422,-1.4256,-1.4244,-1.421,-1.4167,-1.423,-1.425,-1.4258,-1.4141,-1.414,-1.4138,-1.4137,0,0,-1.4555,-1.4496,-1.4502,-1.4487,-1.4447,-1.4443,-1.4449,-1.443,-1.4428,-1.4406,-1.4409,-1.4397,-1.4366,-1.4353,-1.4319,-1.4329,-1.4383,-1.4294,-1.4293,-1.4313,-1.4422,-1.4448,-1.4459,-1.4359,-1.436,-1.4361,-1.4425,0,-1.462,-1.4625,-1.4582,-1.46,-1.4596,-1.454,-1.4545,-1.4521,-1.4493,-1.4487,-1.4456,-1.4449,-1.4408,-1.44,-1.4407,-1.4375,-1.4405,-1.437,-1.4362,-1.4362,-1.4372,-1.4469,-1.4496,-1.4558,-1.4432,-1.4434,-1.4435,0,-1.4696,-1.4679,-1.4696,-1.4656,-1.4652,-1.4658,-1.4637,-1.4631,-1.4603,-1.4582,-1.4568,-1.4529,-1.4532,-1.449,-1.4493,-1.4471,-1.4465,-1.4449,-1.445,-1.4448,-1.4403,-1.447,-1.4576,-1.4586,-1.4446,-1.4445,-1.4444,0,-1.4783,-1.4764,-1.4772,-1.4761,-1.4713,-1.4719,-1.4699,-1.4669,-1.466,-1.4643,-1.4637,-1.4619,-1.461,-1.4598,-1.4556,-1.4529,-1.4565,-1.4519,-1.4548,-1.4549,-1.4558,-1.4559,-1.4666,-1.4554,-1.4554,-1.4553,-1.4553,0,-1.4861,-1.4874,-1.4811,-1.4816,-1.4829,-1.4779,-1.4793,-1.4768,-1.4742,-1.4742,-1.4692,-1.4692,-1.4636,-1.4631,-1.4598,-1.4606,-1.4602,-1.4586,-1.4577,-1.4591,-1.4593,-1.4587,-1.4582,-1.4556,-1.4555,-1.4555,-1.4554,0,-1.496,-1.4919,-1.4924,-1.4879,-1.4868,-1.488,-1.4841,-1.4844,-1.4813,-1.4813,-1.4811,-1.4763,-1.4754,-1.4711,-1.4691,-1.4669,-1.4689,-1.4671,-1.4699,-1.4693,-1.4725,-1.4723,-1.4832,-1.4844,-1.4724,-1.4726,-1.4727,0,-1.5013,-1.5022,-1.4978,-1.4974,-1.4957,-1.4951,-1.4942,-1.4893,-1.4886,-1.4855,-1.4862,-1.4849,-1.4836,-1.4825,-1.4789,-1.4774,-1.4755,-1.4795,-1.4753,-1.4767,-1.4757,-1.4757,-1.4758,-1.4804,-1.4806,-1.4807,-1.4808,0,-1.5111,-1.509,-1.5079,-1.5062,-1.5053,-1.5037,-1.5018,-1.5017,-1.4963,-1.4958,-1.4948,-1.4938,-1.4919,-1.4907,-1.4886,-1.4866,-1.4829,-1.4821,-1.4827,-1.4842,-1.4858,-1.4851,-1.4724,-1.4819,-1.4818,-1.4817,-1.4817,-1.4816,-1.5189,-1.5194,-1.5165,-1.5155,-1.5135,-1.5118,-1.5119,-1.5089,-1.508,-1.5061,-1.5032,-1.5027,-1.4998,-1.4967,-1.495,-1.4945,-1.4923,-1.4932,-1.4934,-1.4937,-1.4945,-1.4858,-1.4941,-1.494,-1.494,-1.494,-1.4939,0,-1.5285,-1.5263,-1.5254,-1.5229,-1.5222,-1.5187,-1.5164,-1.516,-1.5156,-1.5133,-1.5121,-1.511,-1.5099,-1.5062,-1.5046,-1.5049,-1.5032,-1.5047,-1.5047,-1.5043,-1.4964,-1.4961,-1.5062,-1.5062,-1.5062,-1.5062,-1.5062,-1.5062,-1.5334,-1.5342,-1.5318,-1.5315,-1.5293,-1.5287,-1.5277,-1.5262,-1.5243,-1.5234,-1.5224,-1.52,-1.5171,-1.5153,-1.5141,-1.5131,-1.5128,-1.5149,-1.5133,-1.506,-1.5048,-1.5037,-1.5034,-1.5148,-1.5148,-1.5212,-1.5213,-1.5213]},{"header":{"parameterUnit":"m.s-1","parameterCategory":1,"la1":30.2991,"la2":30.254,"lo1":-89.0895,"lo2":-89.0444,"dy":0.0017,"dx":0.0017,"nx":28,"ny":28,"refTime":"2023-08-25T03:00:00:Z","depth":0,"parameterNumber":3,"parameterNumberName":"V-component_of_WINDS"},"data":[0,0,0,0,0,0,0,0,0,0,0,0,0,0,0,0,0,0,0,0,0,0,0,0,0,0,0,0,0,0,0,0,0,0,0,0,0,0,0,0,0,0,0,0,0,0,0,0,0,0,0,0,0,0,0,0,0,0,-1.3083,-1.3084,0,-1.3156,-1.3156,-1.3157,-1.3156,-1.3155,-1.3154,-1.3153,-1.3229,-1.3232,-1.3234,0,0,0,0,0,0,0,0,0,0,0,0,0,-1.2945,-1.2948,-1.3083,-1.3084,-1.3085,-1.3155,-1.3156,-1.3157,-1.3156,-1.3155,-1.3154,-1.3153,-1.3228,-1.3231,-1.3235,0,0,0,0,0,0,0,0,0,0,0,0,0,-1.301,-1.2949,-1.3083,-1.3093,-1.3094,-1.3155,-1.3156,-1.3158,-1.3157,-1.3155,-1.3154,-1.3152,-1.3227,-1.3231,-1.3235,-1.3291,0,0,-1.3249,-1.325,0,0,0,0,0,0,0,0,-1.3007,-1.3015,-1.3091,-1.3092,-1.3094,-1.3145,-1.3136,-1.3203,-1.3157,-1.3133,-1.3153,-1.3152,-1.3202,-1.3209,-1.3225,-1.3295,-1.3298,-1.3249,-1.3252,-1.3254,-1.3255,0,0,0,0,0,0,0,-1.3002,-1.3012,-1.3112,-1.3092,-1.3094,-1.3094,-1.3102,-1.3148,-1.3175,-1.3135,-1.3135,-1.3144,-1.3203,-1.3221,-1.3227,-1.3299,-1.3249,-1.3253,-1.3255,-1.3257,-1.3419,-1.3421,0,0,0,0,0,0,-1.2995,-1.3008,-1.311,-1.3114,-1.3046,-1.3098,-1.3106,-1.313,-1.3174,-1.318,-1.3145,-1.3143,-1.3214,-1.3222,-1.323,-1.3299,-1.3253,-1.3258,-1.326,-1.3418,-1.342,-1.3422,0,0,0,0,0,0,-1.2992,-1.3004,-1.3107,-1.3061,-1.3074,-1.3102,-1.3129,-1.3133,-1.3151,-1.3182,-1.3187,-1.3158,-1.3214,-1.3224,-1.3276,-1.3302,-1.326,-1.3264,-1.3416,-1.3418,-1.3421,-1.3438,0,0,0,0,0,0,-1.2988,-1.3003,-1.3025,-1.3062,-1.3077,-1.3152,-1.313,-1.3135,-1.3158,-1.3157,-1.3196,-1.3201,-1.3213,-1.327,-1.3281,-1.3307,-1.3267,-1.3414,-1.3417,-1.342,-1.3436,-1.3441,-1.3446,0,0,0,0,0,-1.2983,-1.3027,-1.3026,-1.3038,-1.3104,-1.3153,-1.3162,-1.3174,-1.316,-1.3182,-1.3202,-1.32,-1.3297,-1.3275,-1.3287,-1.3316,-1.3412,-1.3416,-1.342,-1.3433,-1.344,-1.3446,0,0,0,0,0,0,-1.2992,-1.3032,-1.3031,-1.3088,-1.3117,-1.3153,-1.3181,-1.3181,-1.3215,-1.3213,-1.3228,-1.3236,-1.3289,-1.3307,-1.3282,-1.3373,-1.3353,-1.3359,-1.3359,-1.3366,-1.3371,-1.3366,-1.3271,0,0,0,0,0,-1.3001,-1.3037,-1.307,-1.3116,-1.3131,-1.3153,-1.3175,-1.3182,-1.3214,-1.3226,-1.325,-1.3281,-1.3318,-1.3343,-1.3379,-1.3438,-1.3447,-1.3463,-1.3468,-1.3473,-1.3478,-1.3512,-1.352,-1.3434,-1.3434,-1.3434,0,0,-1.3019,-1.3045,-1.3067,-1.3119,-1.3142,-1.318,-1.3164,-1.3204,-1.3233,-1.3232,-1.3284,-1.3302,-1.3338,-1.3394,-1.342,-1.3411,-1.3504,-1.3477,-1.348,-1.3484,-1.3517,-1.3525,-1.3532,-1.3437,-1.3436,-1.3436,0,0,-1.3071,-1.3094,-1.3136,-1.316,-1.3196,-1.321,-1.322,-1.3256,-1.3268,-1.332,-1.3321,-1.3355,-1.3419,-1.3444,-1.3466,-1.3527,-1.3527,-1.3539,-1.3566,-1.3599,-1.3606,-1.3612,-1.3635,-1.3643,-1.3544,-1.3544,-1.3544,0,-1.309,-1.3146,-1.3158,-1.3199,-1.3222,-1.3223,-1.3266,-1.3288,-1.3334,-1.3351,-1.3339,-1.342,-1.3444,-1.3507,-1.3522,-1.3539,-1.3551,-1.3535,-1.3603,-1.361,-1.3616,-1.3638,-1.3647,-1.3546,-1.3545,-1.3545,-1.3545,0,-1.3167,-1.3206,-1.3236,-1.328,-1.3306,-1.3348,-1.3367,-1.3392,-1.3397,-1.3413,-1.3465,-1.3494,-1.3536,-1.3551,-1.3556,-1.3615,-1.3608,-1.36,-1.3581,-1.3625,-1.3646,-1.3655,-1.3547,-1.3547,-1.3547,-1.3546,0,0,-1.3228,-1.3278,-1.3289,-1.3309,-1.3349,-1.3379,-1.3421,-1.3462,-1.3484,-1.3516,-1.3552,-1.3606,-1.3599,-1.3623,-1.3631,-1.3659,-1.3708,-1.3648,-1.3649,-1.3659,-1.3775,-1.3782,-1.3792,-1.3707,-1.3709,-1.371,-1.3773,0,-1.3286,-1.336,-1.3372,-1.3437,-1.3474,-1.3475,-1.3512,-1.354,-1.3556,-1.359,-1.3608,-1.3646,-1.3633,-1.3648,-1.3676,-1.3696,-1.3732,-1.3691,-1.3742,-1.3744,-1.3735,-1.3803,-1.381,-1.3868,-1.3781,-1.3783,-1.3784,0,-1.3363,-1.3397,-1.3466,-1.3501,-1.3517,-1.3549,-1.3588,-1.362,-1.3653,-1.3662,-1.3689,-1.3694,-1.3738,-1.3715,-1.3777,-1.3749,-1.3771,-1.3784,-1.3786,-1.3793,-1.3767,-1.3812,-1.3887,-1.3896,-1.3797,-1.3796,-1.3795,0,-1.3402,-1.3465,-1.3514,-1.3531,-1.3573,-1.3596,-1.3615,-1.3645,-1.367,-1.3704,-1.372,-1.3758,-1.378,-1.381,-1.3825,-1.3807,-1.3886,-1.3864,-1.3896,-1.3896,-1.3914,-1.3913,-1.3994,-1.3925,-1.3925,-1.3925,-1.3925,0,-1.3466,-1.3509,-1.3532,-1.3563,-1.3611,-1.3624,-1.3671,-1.3689,-1.3717,-1.3751,-1.3754,-1.3787,-1.3804,-1.384,-1.3852,-1.3901,-1.3911,-1.392,-1.3923,-1.3921,-1.392,-1.3936,-1.3933,-1.3927,-1.3927,-1.3926,-1.3926,0,-1.3519,-1.3536,-1.3591,-1.3625,-1.3635,-1.3669,-1.3699,-1.3729,-1.3744,-1.3788,-1.3799,-1.3824,-1.3866,-1.3883,-1.3934,-1.3943,-1.4,-1.3999,-1.3989,-1.3991,-1.4022,-1.4019,-1.4117,-1.4131,-1.4052,-1.4053,-1.4053,0,-1.3559,-1.3592,-1.363,-1.3654,-1.3673,-1.371,-1.3735,-1.3749,-1.3774,-1.3814,-1.3839,-1.3881,-1.3915,-1.3982,-1.4004,-1.4044,-1.4045,-1.4077,-1.4051,-1.4048,-1.4047,-1.4045,-1.4049,-1.4082,-1.4083,-1.4083,-1.4084,0,-1.3629,-1.3636,-1.3672,-1.371,-1.3739,-1.377,-1.38,-1.3819,-1.3838,-1.3867,-1.3909,-1.3936,-1.3988,-1.4029,-1.407,-1.409,-1.4091,-1.4091,-1.4101,-1.41,-1.4093,-1.4098,-1.4004,-1.4089,-1.4089,-1.4088,-1.4088,-1.4088,-1.3678,-1.3708,-1.3739,-1.3779,-1.3803,-1.3831,-1.3861,-1.388,-1.3916,-1.3959,-1.3965,-1.4011,-1.4043,-1.4098,-1.4119,-1.4155,-1.4147,-1.4161,-1.4165,-1.4168,-1.4171,-1.4086,-1.4162,-1.4162,-1.4162,-1.4162,-1.4162,0,-1.375,-1.377,-1.3806,-1.3848,-1.3879,-1.3876,-1.3909,-1.3936,-1.3976,-1.4005,-1.4039,-1.4088,-1.4128,-1.4154,-1.4195,-1.4219,-1.4221,-1.423,-1.4229,-1.4233,-1.4175,-1.4163,-1.4228,-1.4228,-1.4228,-1.4228,-1.4228,-1.4228,-1.3791,-1.3841,-1.3851,-1.3914,-1.3934,-1.3979,-1.3998,-1.4024,-1.4048,-1.4103,-1.4136,-1.4152,-1.4181,-1.4224,-1.4261,-1.4267,-1.4283,-1.4293,-1.4299,-1.4244,-1.4237,-1.4231,-1.422,-1.4296,-1.4296,-1.4354,-1.4355,-1.4355]}]]